World > North America > United States > Illinois

Shields, Illinois Regional Weather

Lat: 38.37N, Lon: 88.65W
Wx Zone: ILZ076Web Search

Pass this page to a friend. Tell them to point their camera at the QR Code near the bottom of this page.

Feedback


°F Click to change Shields hourly weather to Imperial units.Click to change Shields hourly weather to Metric units. °C
Shields Weather Map
UTC Time: 5/12/2021, 14:49
Your Time:

Shields, IL Regional Weather

Expires:202105121500;;001047
ASUS43 KLOT 121409
RWRIL 

ILLINOIS REGIONAL WEATHER ROUNDUP
NATIONAL WEATHER SERVICE CHICAGO/ROMEOVILLE IL
900 AM CDT WED MAY 12 2021

NOTE: "FAIR" INDICATES FEW OR NO CLOUDS BELOW 12,000 FEET WITH NO
SIGNIFICANT WEATHER AND/OR OBSTRUCTIONS TO VISIBILITY.

* THESE STATIONS ARE NOT UNDER NWS QUALITY CONTROL. THEY ALSO MAY NOT
  REPORT WEATHER SUCH AS PRECIPITATION OR FOG.


ILZ064>066-069>071-074>076-080>082-084>086-088>090-092>094-121500-
SOUTH-CENTRAL ILLINOIS
  
CITY           SKY/WX    TMP DP  RH WIND       PRES   REMARKS
CARBONDALE     SUNNY     53  37  54 NE10      30.39R                  
CAIRO*         MOSUNNY   54  37  51 E14G20    30.35R                  
EFFINGHAM*     SUNNY     51  35  53 NE8       30.46R                  
MARION         MOSUNNY   52  36  54 NE7       30.40R                  
MT. VERNON     SUNNY     52  35  52 NE13      30.42R                  
CENTRALIA*     SUNNY     50  35  57 NE9       30.42R                  
SALEM*         SUNNY     51  34  53 NE8       30.43R                  
$$


SKY/WX - Weather  TMP - Temperature  DP - Dew Point  RH - Relative Humidity
WIND - Wind Direction/Speed PRES - Barometric Pressure VSB - Visibility
WCI - Wind Chill Index E13G22 Wind - East Wind 13 mph/Gusts of 22 mph